Time,TemperatureF,DewpointF,PressureIn,WindDirection,WindDirectionDegrees,WindSpeedMPH,WindSpeedGustMPH,Humidity,HourlyPrecipIn,Conditions,Clouds,dailyrainin,SoftwareType,DateUTC
2013-05-01 00:00:00,56.4,48.9,30.27,North,360,4.0,4.0,76,0.00,,,0.00,Wunderground v.1.15,2013-05-01 04:00:00,
2013-05-01 00:02:00,56.4,48.9,30.27,North,360,4.0,4.0,76,0.00,,,0.00,Wunderground v.1.15,2013-05-01 04:02:00,
2013-05-01 00:06:00,56.2,48.7,30.27,North,360,4.0,6.0,76,0.00,,,0.00,Wunderground v.1.15,2013-05-01 04:06:00,
2013-05-01 00:08:00,56.2,48.7,30.28,North,360,4.0,6.0,76,0.00,,,0.00,Wunderground v.1.15,2013-05-01 04:08:00,
2013-05-01 00:10:00,56.1,48.6,30.27,North,360,4.0,4.0,76,0.00,,,0.00,Wunderground v.1.15,2013-05-01 04:10:00,
2013-05-01 00:14:00,56.0,48.5,30.27,North,360,5.0,10.0,76,0.00,,,0.00,Wunderground v.1.15,2013-05-01 04:14:00,
2013-05-01 00:16:00,56.0,48.5,30.27,North,360,5.0,10.0,76,0.00,,,0.00,Wunderground v.1.15,2013-05-01 04:16:00,
2013-05-01 00:18:00,56.0,48.9,30.27,North,360,5.0,10.0,77,0.00,,,0.00,Wunderground v.1.15,2013-05-01 04:18:00,
2013-05-01 00:20:00,55.9,48.8,30.27,North,360,5.0,5.0,77,0.00,,,0.00,Wunderground v.1.15,2013-05-01 04:20:00,
2013-05-01 00:22:00,55.9,48.8,30.27,North,360,4.0,5.0,77,0.00,,,0.00,Wunderground v.1.15,2013-05-01 04:22:00,
2013-05-01 00:24:00,55.9,48.8,30.28,North,360,4.0,5.0,77,0.00,,,0.00,Wunderground v.1.15,2013-05-01 04:24:00,
2013-05-01 00:26:00,55.9,48.8,30.28,North,360,3.0,5.0,77,0.00,,,0.00,Wunderground v.1.15,2013-05-01 04:26:00,
2013-05-01 00:30:00,55.9,48.4,30.28,North,360,3.0,3.0,76,0.00,,,0.00,Wunderground v.1.15,2013-05-01 04:30:00,
2013-05-01 00:32:00,55.9,48.4,30.28,North,360,3.0,3.0,76,0.00,,,0.00,Wunderground v.1.15,2013-05-01 04:32:00,
2013-05-01 00:38:00,55.9,48.4,30.28,North,360,2.0,3.0,76,0.00,,,0.00,Wunderground v.1.15,2013-05-01 04:38:00,
2013-05-01 00:40:00,55.9,48.4,30.28,North,360,2.0,2.0,76,0.00,,,0.00,Wunderground v.1.15,2013-05-01 04:40:00,
2013-05-01 00:46:00,56.0,48.5,30.28,North,360,3.0,5.0,76,0.00,,,0.00,Wunderground v.1.15,2013-05-01 04:46:00,
2013-05-01 00:48:00,56.0,48.5,30.28,North,360,3.0,5.0,76,0.00,,,0.00,Wunderground v.1.15,2013-05-01 04:48:00,
2013-05-01 00:50:00,56.0,48.5,30.28,North,360,3.0,3.0,76,0.00,,,0.00,Wunderground v.1.15,2013-05-01 04:50:00,
2013-05-01 00:52:00,55.9,48.4,30.28,North,360,3.0,3.0,76,0.00,,,0.00,Wunderground v.1.15,2013-05-01 04:52:00,
2013-05-01 00:54:00,56.0,48.5,30.28,North,360,2.0,3.0,76,0.00,,,0.00,Wunderground v.1.15,2013-05-01 04:54:00,
2013-05-01 00:56:00,55.9,48.4,30.28,North,360,2.0,3.0,76,0.00,,,0.00,Wunderground v.1.15,2013-05-01 04:56:00,
2013-05-01 00:58:00,55.9,48.4,30.28,North,360,2.0,3.0,76,0.00,,,0.00,Wunderground v.1.15,2013-05-01 04:58:00,
2013-05-01 01:00:00,56.0,48.5,30.28,North,360,1.0,1.0,76,0.00,,,0.00,Wunderground v.1.15,2013-05-01 05:00:00,
2013-05-01 01:04:00,55.9,48.4,30.28,North,360,1.0,2.0,76,0.00,,,0.00,Wunderground v.1.15,2013-05-01 05:04:00,
2013-05-01 01:08:00,55.8,48.3,30.28,North,360,2.0,3.0,76,0.00,,,0.00,Wunderground v.1.15,2013-05-01 05:08:00,
2013-05-01 01:10:00,55.7,48.2,30.28,North,360,3.0,5.0,76,0.00,,,0.00,Wunderground v.1.15,2013-05-01 05:10:00,
2013-05-01 01:12:00,55.5,48.4,30.28,North,360,4.0,5.0,77,0.00,,,0.00,Wunderground v.1.15,2013-05-01 05:12:00,
2013-05-01 01:16:00,55.3,48.2,30.28,North,360,5.0,6.0,77,0.00,,,0.00,Wunderground v.1.15,2013-05-01 05:16:00,
2013-05-01 01:22:00,55.0,48.3,30.28,North,360,5.0,5.0,78,0.00,,,0.00,Wunderground v.1.15,2013-05-01 05:22:00,
2013-05-01 01:24:00,55.0,48.3,30.28,North,360,5.0,5.0,78,0.00,,,0.00,Wunderground v.1.15,2013-05-01 05:24:00,
2013-05-01 01:28:00,54.9,48.2,30.28,North,360,4.0,5.0,78,0.00,,,0.00,Wunderground v.1.15,2013-05-01 05:28:00,
2013-05-01 01:30:00,54.9,48.2,30.28,North,360,4.0,4.0,78,0.00,,,0.00,Wunderground v.1.15,2013-05-01 05:30:00,
2013-05-01 01:32:00,54.9,48.2,30.28,North,360,3.0,5.0,78,0.00,,,0.00,Wunderground v.1.15,2013-05-01 05:32:00,
2013-05-01 01:38:00,54.8,48.1,30.28,North,360,3.0,6.0,78,0.00,,,0.00,Wunderground v.1.15,2013-05-01 05:38:00,
2013-05-01 01:42:00,54.7,48.0,30.28,North,360,3.0,4.0,78,0.00,,,0.00,Wunderground v.1.15,2013-05-01 05:42:00,
2013-05-01 01:44:00,54.7,47.6,30.28,North,360,4.0,4.0,77,0.00,,,0.00,Wunderground v.1.15,2013-05-01 05:44:00,
2013-05-01 01:46:00,54.8,47.7,30.28,North,360,4.0,4.0,77,0.00,,,0.00,Wunderground v.1.15,2013-05-01 05:46:00,
2013-05-01 01:52:00,54.6,47.5,30.27,North,360,4.0,4.0,77,0.00,,,0.00,Wunderground v.1.15,2013-05-01 05:52:00,
2013-05-01 01:54:00,54.6,47.5,30.27,North,360,3.0,4.0,77,0.00,,,0.00,Wunderground v.1.15,2013-05-01 05:54:00,
2013-05-01 01:56:00,54.5,47.4,30.27,North,360,3.0,4.0,77,0.00,,,0.00,Wunderground v.1.15,2013-05-01 05:56:00,
2013-05-01 01:58:00,54.6,47.5,30.27,North,360,3.0,4.0,77,0.00,,,0.00,Wunderground v.1.15,2013-05-01 05:58:00,
2013-05-01 02:00:00,54.6,47.5,30.27,North,360,3.0,5.0,77,0.00,,,0.00,Wunderground v.1.15,2013-05-01 06:00:00,
2013-05-01 02:04:00,54.5,47.4,30.27,North,360,3.0,5.0,77,0.00,,,0.00,Wunderground v.1.15,2013-05-01 06:04:00,
2013-05-01 02:06:00,54.4,47.3,30.27,North,360,3.0,5.0,77,0.00,,,0.00,Wunderground v.1.15,2013-05-01 06:06:00,
2013-05-01 02:10:00,54.3,47.2,30.27,North,360,3.0,3.0,77,0.00,,,0.00,Wunderground v.1.15,2013-05-01 06:10:00,
2013-05-01 02:12:00,54.3,47.2,30.28,North,360,3.0,3.0,77,0.00,,,0.00,Wunderground v.1.15,2013-05-01 06:12:00,
2013-05-01 02:14:00,54.3,47.2,30.28,North,360,2.0,3.0,77,0.00,,,0.00,Wunderground v.1.15,2013-05-01 06:14:00,
2013-05-01 02:20:00,54.2,47.1,30.27,North,360,2.0,2.0,77,0.00,,,0.00,Wunderground v.1.15,2013-05-01 06:20:00,
2013-05-01 02:22:00,54.2,47.1,30.27,North,360,3.0,3.0,77,0.00,,,0.00,Wunderground v.1.15,2013-05-01 06:22:00,
2013-05-01 02:24:00,54.1,47.0,30.27,North,360,3.0,3.0,77,0.00,,,0.00,Wunderground v.1.15,2013-05-01 06:24:00,
2013-05-01 02:26:00,54.0,47.0,30.27,North,360,3.0,5.0,77,0.00,,,0.00,Wunderground v.1.15,2013-05-01 06:26:00,
2013-05-01 02:28:00,53.9,46.9,30.27,North,360,3.0,5.0,77,0.00,,,0.00,Wunderground v.1.15,2013-05-01 06:28:00,
2013-05-01 02:30:00,53.9,46.9,30.27,North,360,3.0,4.0,77,0.00,,,0.00,Wunderground v.1.15,2013-05-01 06:30:00,
2013-05-01 02:34:00,53.7,46.3,30.27,North,360,4.0,5.0,76,0.00,,,0.00,Wunderground v.1.15,2013-05-01 06:34:00,
2013-05-01 02:36:00,53.7,46.3,30.27,North,360,4.0,5.0,76,0.00,,,0.00,Wunderground v.1.15,2013-05-01 06:36:00,
2013-05-01 02:38:00,53.6,46.2,30.28,North,360,4.0,5.0,76,0.00,,,0.00,Wunderground v.1.15,2013-05-01 06:38:00,
2013-05-01 02:40:00,53.6,46.2,30.28,North,360,4.0,4.0,76,0.00,,,0.00,Wunderground v.1.15,2013-05-01 06:40:00,
2013-05-01 02:42:00,53.6,46.2,30.28,North,360,4.0,5.0,76,0.00,,,0.00,Wunderground v.1.15,2013-05-01 06:42:00,
2013-05-01 02:46:00,53.6,45.9,30.28,North,360,4.0,5.0,75,0.00,,,0.00,Wunderground v.1.15,2013-05-01 06:46:00,
2013-05-01 02:48:00,53.6,45.9,30.28,North,360,4.0,6.0,75,0.00,,,0.00,Wunderground v.1.15,2013-05-01 06:48:00,
2013-05-01 02:50:00,53.5,45.4,30.28,North,360,4.0,4.0,74,0.00,,,0.00,Wunderground v.1.15,2013-05-01 06:50:00,
2013-05-01 02:52:00,53.6,45.9,30.28,North,360,4.0,5.0,75,0.00,,,0.00,Wunderground v.1.15,2013-05-01 06:52:00,
2013-05-01 02:58:00,53.4,45.7,30.28,North,360,4.0,5.0,75,0.00,,,0.00,Wunderground v.1.15,2013-05-01 06:58:00,
2013-05-01 03:00:00,53.3,45.6,30.28,North,360,4.0,4.0,75,0.00,,,0.00,Wunderground v.1.15,2013-05-01 07:00:00,
2013-05-01 03:06:00,53.1,45.4,30.28,North,360,4.0,5.0,75,0.00,,,0.00,Wunderground v.1.15,2013-05-01 07:06:00,
2013-05-01 03:10:00,53.0,45.3,30.28,North,360,4.0,5.0,75,0.00,,,0.00,Wunderground v.1.15,2013-05-01 07:10:00,
2013-05-01 03:12:00,52.9,45.2,30.28,North,360,4.0,6.0,75,0.00,,,0.00,Wunderground v.1.15,2013-05-01 07:12:00,
2013-05-01 03:16:00,52.8,45.1,30.28,North,360,4.0,6.0,75,0.00,,,0.00,Wunderground v.1.15,2013-05-01 07:16:00,
2013-05-01 03:18:00,52.8,45.1,30.28,North,360,4.0,6.0,75,0.00,,,0.00,Wunderground v.1.15,2013-05-01 07:18:00,
2013-05-01 03:20:00,52.7,45.0,30.28,North,360,4.0,10.0,75,0.00,,,0.00,Wunderground v.1.15,2013-05-01 07:20:00,
2013-05-01 03:22:00,52.7,45.0,30.28,North,360,4.0,10.0,75,0.00,,,0.00,Wunderground v.1.15,2013-05-01 07:22:00,
2013-05-01 03:26:00,52.6,44.9,30.28,North,360,4.0,10.0,75,0.00,,,0.00,Wunderground v.1.15,2013-05-01 07:26:00,
2013-05-01 03:28:00,52.6,44.9,30.28,North,360,5.0,10.0,75,0.00,,,0.00,Wunderground v.1.15,2013-05-01 07:28:00,
2013-05-01 03:30:00,52.6,44.9,30.28,North,360,4.0,4.0,75,0.00,,,0.00,Wunderground v.1.15,2013-05-01 07:30:00,
2013-05-01 03:32:00,52.6,44.9,30.28,North,360,4.0,4.0,75,0.00,,,0.00,Wunderground v.1.15,2013-05-01 07:32:00,
2013-05-01 03:36:00,52.6,44.9,30.28,North,360,3.0,4.0,75,0.00,,,0.00,Wunderground v.1.15,2013-05-01 07:36:00,
2013-05-01 03:38:00,52.6,44.5,30.28,North,360,2.0,4.0,74,0.00,,,0.00,Wunderground v.1.15,2013-05-01 07:38:00,
2013-05-01 03:40:00,52.6,44.5,30.28,North,360,2.0,5.0,74,0.00,,,0.00,Wunderground v.1.15,2013-05-01 07:40:00,
2013-05-01 03:44:00,52.6,44.2,30.29,North,360,3.0,5.0,73,0.00,,,0.00,Wunderground v.1.15,2013-05-01 07:44:00,
2013-05-01 03:46:00,52.6,44.2,30.29,North,360,3.0,5.0,73,0.00,,,0.00,Wunderground v.1.15,2013-05-01 07:46:00,
2013-05-01 03:48:00,52.6,44.5,30.29,North,360,3.0,5.0,74,0.00,,,0.00,Wunderground v.1.15,2013-05-01 07:48:00,
2013-05-01 03:52:00,52.5,44.1,30.29,North,360,3.0,3.0,73,0.00,,,0.00,Wunderground v.1.15,2013-05-01 07:52:00,
2013-05-01 03:54:00,52.5,43.7,30.29,North,360,3.0,3.0,72,0.00,,,0.00,Wunderground v.1.15,2013-05-01 07:54:00,
2013-05-01 03:56:00,52.5,43.7,30.29,North,360,3.0,4.0,72,0.00,,,0.00,Wunderground v.1.15,2013-05-01 07:56:00,
2013-05-01 04:00:00,52.5,43.7,30.29,North,360,3.0,6.0,72,0.00,,,0.00,Wunderground v.1.15,2013-05-01 08:00:00,
2013-05-01 04:02:00,52.4,43.3,30.29,North,360,3.0,6.0,71,0.00,,,0.00,Wunderground v.1.15,2013-05-01 08:02:00,
2013-05-01 04:04:00,52.4,43.3,30.29,North,360,3.0,6.0,71,0.00,,,0.00,Wunderground v.1.15,2013-05-01 08:04:00,
2013-05-01 04:08:00,52.3,43.2,30.29,North,360,3.0,6.0,71,0.00,,,0.00,Wunderground v.1.15,2013-05-01 08:08:00,
2013-05-01 04:10:00,52.3,42.8,30.29,North,360,3.0,4.0,70,0.00,,,0.00,Wunderground v.1.15,2013-05-01 08:10:00,
2013-05-01 04:14:00,52.3,43.2,30.29,North,360,3.0,4.0,71,0.00,,,0.00,Wunderground v.1.15,2013-05-01 08:14:00,
2013-05-01 04:16:00,52.3,43.2,30.29,North,360,3.0,4.0,71,0.00,,,0.00,Wunderground v.1.15,2013-05-01 08:16:00,
2013-05-01 04:20:00,52.2,43.1,30.29,North,360,3.0,5.0,71,0.00,,,0.00,Wunderground v.1.15,2013-05-01 08:20:00,
2013-05-01 04:24:00,52.2,42.7,30.29,North,360,3.0,5.0,70,0.00,,,0.00,Wunderground v.1.15,2013-05-01 08:24:00,
2013-05-01 04:28:00,52.0,42.5,30.29,North,360,3.0,5.0,70,0.00,,,0.00,Wunderground v.1.15,2013-05-01 08:28:00,
2013-05-01 04:30:00,51.9,42.8,30.29,North,360,4.0,4.0,71,0.00,,,0.00,Wunderground v.1.15,2013-05-01 08:30:00,
2013-05-01 04:32:00,51.9,42.8,30.30,North,360,4.0,5.0,71,0.00,,,0.00,Wunderground v.1.15,2013-05-01 08:32:00,
2013-05-01 04:34:00,51.7,42.6,30.29,North,360,4.0,5.0,71,0.00,,,0.00,Wunderground v.1.15,2013-05-01 08:34:00,
2013-05-01 04:38:00,51.6,42.5,30.29,North,360,4.0,6.0,71,0.00,,,0.00,Wunderground v.1.15,2013-05-01 08:38:00,
2013-05-01 04:40:00,51.5,42.4,30.29,North,360,4.0,6.0,71,0.00,,,0.00,Wunderground v.1.15,2013-05-01 08:40:00,
2013-05-01 04:42:00,51.5,42.4,30.29,North,360,5.0,6.0,71,0.00,,,0.00,Wunderground v.1.15,2013-05-01 08:42:00,
2013-05-01 04:46:00,51.3,42.2,30.29,North,360,5.0,6.0,71,0.00,,,0.00,Wunderground v.1.15,2013-05-01 08:46:00,
2013-05-01 04:48:00,51.3,42.2,30.29,North,360,5.0,6.0,71,0.00,,,0.00,Wunderground v.1.15,2013-05-01 08:48:00,
2013-05-01 04:50:00,51.2,42.1,30.29,North,360,5.0,5.0,71,0.00,,,0.00,Wunderground v.1.15,2013-05-01 08:50:00,
2013-05-01 04:54:00,51.1,42.4,30.29,North,360,5.0,6.0,72,0.00,,,0.00,Wunderground v.1.15,2013-05-01 08:54:00,
2013-05-01 04:56:00,51.1,42.4,30.29,North,360,5.0,6.0,72,0.00,,,0.00,Wunderground v.1.15,2013-05-01 08:56:00,
2013-05-01 04:58:00,51.1,42.4,30.29,North,360,5.0,6.0,72,0.00,,,0.00,Wunderground v.1.15,2013-05-01 08:58:00,
2013-05-01 05:00:00,51.1,42.4,30.29,North,360,4.0,4.0,72,0.00,,,0.00,Wunderground v.1.15,2013-05-01 09:00:00,
2013-05-01 05:02:00,51.0,42.3,30.30,North,360,3.0,4.0,72,0.00,,,0.00,Wunderground v.1.15,2013-05-01 09:02:00,
2013-05-01 05:08:00,50.9,42.2,30.30,North,360,3.0,6.0,72,0.00,,,0.00,Wunderground v.1.15,2013-05-01 09:08:00,
2013-05-01 05:10:00,50.8,42.1,30.30,North,360,3.0,3.0,72,0.00,,,0.00,Wunderground v.1.15,2013-05-01 09:10:00,
2013-05-01 05:12:00,50.9,42.6,30.30,North,360,3.0,3.0,73,0.00,,,0.00,Wunderground v.1.15,2013-05-01 09:12:00,
2013-05-01 05:18:00,50.8,42.1,30.30,North,360,3.0,4.0,72,0.00,,,0.00,Wunderground v.1.15,2013-05-01 09:18:00,
2013-05-01 05:22:00,50.6,41.9,30.30,North,360,3.0,4.0,72,0.00,,,0.00,Wunderground v.1.15,2013-05-01 09:22:00,
2013-05-01 05:26:00,50.3,41.6,30.30,North,360,4.0,6.0,72,0.00,,,0.00,Wunderground v.1.15,2013-05-01 09:26:00,
2013-05-01 05:28:00,50.2,41.5,30.30,North,360,4.0,6.0,72,0.00,,,0.00,Wunderground v.1.15,2013-05-01 09:28:00,
2013-05-01 05:32:00,50.1,41.8,30.30,North,360,4.0,6.0,73,0.00,,,0.00,Wunderground v.1.15,2013-05-01 09:32:00,
2013-05-01 05:34:00,50.1,41.8,30.30,North,360,4.0,6.0,73,0.00,,,0.00,Wunderground v.1.15,2013-05-01 09:34:00,
2013-05-01 05:36:00,50.1,41.8,30.30,North,360,4.0,6.0,73,0.00,,,0.00,Wunderground v.1.15,2013-05-01 09:36:00,
2013-05-01 05:38:00,50.1,41.8,30.30,North,360,4.0,6.0,73,0.00,,,0.00,Wunderground v.1.15,2013-05-01 09:38:00,
2013-05-01 05:40:00,50.1,41.8,30.30,North,360,4.0,4.0,73,0.00,,,0.00,Wunderground v.1.15,2013-05-01 09:40:00,
2013-05-01 05:42:00,50.1,41.8,30.30,North,360,4.0,4.0,73,0.00,,,0.00,Wunderground v.1.15,2013-05-01 09:42:00,
2013-05-01 05:44:00,50.0,41.7,30.30,North,360,4.0,4.0,73,0.00,,,0.00,Wunderground v.1.15,2013-05-01 09:44:00,
2013-05-01 05:48:00,50.0,41.7,30.30,North,360,4.0,4.0,73,0.00,,,0.00,Wunderground v.1.15,2013-05-01 09:48:00,
2013-05-01 05:50:00,49.9,41.6,30.30,North,360,4.0,6.0,73,0.00,,,0.00,Wunderground v.1.15,2013-05-01 09:50:00,
2013-05-01 05:52:00,49.9,41.6,30.30,North,360,4.0,7.0,73,0.00,,,0.00,Wunderground v.1.15,2013-05-01 09:52:00,
2013-05-01 05:54:00,49.8,41.5,30.30,North,360,5.0,7.0,73,0.00,,,0.00,Wunderground v.1.15,2013-05-01 09:54:00,
2013-05-01 05:58:00,49.8,41.5,30.30,North,360,5.0,7.0,73,0.00,,,0.00,Wunderground v.1.15,2013-05-01 09:58:00,
2013-05-01 06:00:00,49.8,41.8,30.30,North,360,4.0,4.0,74,0.00,,,0.00,Wunderground v.1.15,2013-05-01 10:00:00,
2013-05-01 06:02:00,49.8,41.8,30.30,North,360,4.0,4.0,74,0.00,,,0.00,Wunderground v.1.15,2013-05-01 10:02:00,
2013-05-01 06:06:00,49.8,41.5,30.30,North,360,3.0,5.0,73,0.00,,,0.00,Wunderground v.1.15,2013-05-01 10:06:00,
2013-05-01 06:08:00,49.8,41.5,30.31,North,360,4.0,6.0,73,0.00,,,0.00,Wunderground v.1.15,2013-05-01 10:08:00,
2013-05-01 06:10:00,49.7,41.4,30.31,North,360,4.0,5.0,73,0.00,,,0.00,Wunderground v.1.15,2013-05-01 10:10:00,
2013-05-01 06:14:00,49.7,41.4,30.31,North,360,4.0,6.0,73,0.00,,,0.00,Wunderground v.1.15,2013-05-01 10:14:00,
2013-05-01 06:16:00,49.6,41.7,30.31,North,360,4.0,6.0,74,0.00,,,0.00,Wunderground v.1.15,2013-05-01 10:16:00,
2013-05-01 06:18:00,49.6,41.7,30.31,North,360,4.0,6.0,74,0.00,,,0.00,Wunderground v.1.15,2013-05-01 10:18:00,
2013-05-01 06:22:00,49.7,41.7,30.31,North,360,4.0,5.0,74,0.00,,,0.00,Wunderground v.1.15,2013-05-01 10:22:00,
2013-05-01 06:24:00,49.7,41.7,30.31,North,360,5.0,5.0,74,0.00,,,0.00,Wunderground v.1.15,2013-05-01 10:24:00,
2013-05-01 06:28:00,49.6,41.7,30.31,North,360,5.0,6.0,74,0.00,,,0.00,Wunderground v.1.15,2013-05-01 10:28:00,
2013-05-01 06:30:00,49.7,41.7,30.32,North,360,5.0,6.0,74,0.00,,,0.00,Wunderground v.1.15,2013-05-01 10:30:00,
2013-05-01 06:32:00,49.6,41.3,30.32,North,360,5.0,6.0,73,0.00,,,0.00,Wunderground v.1.15,2013-05-01 10:32:00,
2013-05-01 06:34:00,49.7,41.7,30.32,North,360,5.0,6.0,74,0.00,,,0.00,Wunderground v.1.15,2013-05-01 10:34:00,
2013-05-01 06:36:00,49.7,41.7,30.32,North,360,5.0,7.0,74,0.00,,,0.00,Wunderground v.1.15,2013-05-01 10:36:00,
2013-05-01 06:38:00,49.8,41.8,30.32,North,360,5.0,7.0,74,0.00,,,0.00,Wunderground v.1.15,2013-05-01 10:38:00,
2013-05-01 06:44:00,49.9,41.6,30.32,North,360,5.0,6.0,73,0.00,,,0.00,Wunderground v.1.15,2013-05-01 10:44:00,
2013-05-01 06:48:00,50.0,41.7,30.32,North,360,5.0,6.0,73,0.00,,,0.00,Wunderground v.1.15,2013-05-01 10:48:00,
2013-05-01 06:50:00,50.0,41.7,30.32,North,360,5.0,7.0,73,0.00,,,0.01,Wunderground v.1.15,2013-05-01 10:50:00,
2013-05-01 06:54:00,50.0,41.7,30.32,North,360,5.0,7.0,73,0.00,,,0.01,Wunderground v.1.15,2013-05-01 10:54:00,
2013-05-01 06:56:00,50.1,41.8,30.32,North,360,5.0,7.0,73,0.00,,,0.01,Wunderground v.1.15,2013-05-01 10:56:00,
2013-05-01 07:02:00,50.2,41.5,30.33,North,360,5.0,7.0,72,0.00,,,0.01,Wunderground v.1.15,2013-05-01 11:02:00,
2013-05-01 07:04:00,50.3,41.6,30.33,North,360,6.0,10.0,72,0.00,,,0.01,Wunderground v.1.15,2013-05-01 11:04:00,
2013-05-01 07:06:00,50.3,41.6,30.33,North,360,6.0,10.0,72,0.00,,,0.01,Wunderground v.1.15,2013-05-01 11:06:00,
2013-05-01 07:08:00,50.3,42.0,30.33,North,360,6.0,10.0,73,0.00,,,0.01,Wunderground v.1.15,2013-05-01 11:08:00,
2013-05-01 07:10:00,50.5,41.8,30.33,North,360,6.0,6.0,72,0.00,,,0.01,Wunderground v.1.15,2013-05-01 11:10:00,
2013-05-01 07:12:00,50.6,41.9,30.33,North,360,6.0,10.0,72,0.00,,,0.01,Wunderground v.1.15,2013-05-01 11:12:00,
2013-05-01 07:14:00,50.5,41.8,30.33,North,360,5.0,10.0,72,0.00,,,0.01,Wunderground v.1.15,2013-05-01 11:14:00,
2013-05-01 07:16:00,50.6,41.9,30.33,North,360,5.0,13.0,72,0.00,,,0.01,Wunderground v.1.15,2013-05-01 11:16:00,
2013-05-01 07:18:00,50.7,41.6,30.33,North,360,6.0,13.0,71,0.00,,,0.01,Wunderground v.1.15,2013-05-01 11:18:00,
2013-05-01 07:22:00,50.7,41.6,30.33,North,360,6.0,6.0,71,0.00,,,0.01,Wunderground v.1.15,2013-05-01 11:22:00,
2013-05-01 07:24:00,50.8,41.7,30.33,North,360,6.0,7.0,71,0.00,,,0.01,Wunderground v.1.15,2013-05-01 11:24:00,
2013-05-01 07:26:00,50.8,42.1,30.33,North,360,6.0,8.0,72,0.00,,,0.01,Wunderground v.1.15,2013-05-01 11:26:00,
2013-05-01 07:28:00,51.0,41.9,30.33,North,360,6.0,8.0,71,0.00,,,0.01,Wunderground v.1.15,2013-05-01 11:28:00,
2013-05-01 07:30:00,51.1,42.4,30.33,North,360,6.0,6.0,72,0.00,,,0.01,Wunderground v.1.15,2013-05-01 11:30:00,
2013-05-01 07:32:00,51.3,42.6,30.34,North,360,5.0,6.0,72,0.00,,,0.01,Wunderground v.1.15,2013-05-01 11:32:00,
2013-05-01 07:34:00,51.4,42.3,30.34,North,360,5.0,6.0,71,0.00,,,0.01,Wunderground v.1.15,2013-05-01 11:34:00,
2013-05-01 07:36:00,51.5,42.4,30.34,North,360,5.0,6.0,71,0.00,,,0.01,Wunderground v.1.15,2013-05-01 11:36:00,
2013-05-01 07:38:00,51.7,42.6,30.34,North,360,4.0,6.0,71,0.00,,,0.01,Wunderground v.1.15,2013-05-01 11:38:00,
2013-05-01 07:40:00,51.8,42.3,30.34,North,360,5.0,6.0,70,0.00,,,0.01,Wunderground v.1.15,2013-05-01 11:40:00,
2013-05-01 07:42:00,51.7,42.2,30.35,North,360,5.0,6.0,70,0.00,,,0.01,Wunderground v.1.15,2013-05-01 11:42:00,
2013-05-01 07:48:00,52.1,43.0,30.35,North,360,5.0,7.0,71,0.00,,,0.01,Wunderground v.1.15,2013-05-01 11:48:00,
2013-05-01 07:50:00,52.3,42.8,30.35,North,360,4.0,4.0,70,0.00,,,0.01,Wunderground v.1.15,2013-05-01 11:50:00,
2013-05-01 07:54:00,52.2,42.7,30.35,North,360,5.0,10.0,70,0.00,,,0.01,Wunderground v.1.15,2013-05-01 11:54:00,
2013-05-01 07:56:00,52.2,42.7,30.35,North,360,6.0,10.0,70,0.00,,,0.01,Wunderground v.1.15,2013-05-01 11:56:00,
2013-05-01 08:00:00,52.3,42.8,30.35,North,360,7.0,7.0,70,0.00,,,0.01,Wunderground v.1.15,2013-05-01 12:00:00,
2013-05-01 08:02:00,52.4,42.9,30.35,North,360,7.0,10.0,70,0.00,,,0.01,Wunderground v.1.15,2013-05-01 12:02:00,
2013-05-01 08:04:00,52.6,43.1,30.35,North,360,6.0,10.0,70,0.00,,,0.01,Wunderground v.1.15,2013-05-01 12:04:00,
2013-05-01 08:08:00,52.9,43.0,30.35,North,360,6.0,10.0,69,0.00,,,0.01,Wunderground v.1.15,2013-05-01 12:08:00,
2013-05-01 08:10:00,53.1,43.2,30.35,North,360,6.0,6.0,69,0.00,,,0.01,Wunderground v.1.15,2013-05-01 12:10:00,
2013-05-01 08:14:00,53.0,43.1,30.35,North,360,7.0,12.0,69,0.00,,,0.01,Wunderground v.1.15,2013-05-01 12:14:00,
2013-05-01 08:16:00,52.9,42.6,30.35,North,360,8.0,12.0,68,0.00,,,0.01,Wunderground v.1.15,2013-05-01 12:16:00,
2013-05-01 08:18:00,53.0,43.1,30.36,North,360,8.0,12.0,69,0.00,,,0.01,Wunderground v.1.15,2013-05-01 12:18:00,
2013-05-01 08:22:00,53.3,43.0,30.35,North,360,8.0,10.0,68,0.00,,,0.01,Wunderground v.1.15,2013-05-01 12:22:00,
2013-05-01 08:24:00,53.4,43.1,30.36,North,360,8.0,10.0,68,0.00,,,0.01,Wunderground v.1.15,2013-05-01 12:24:00,
2013-05-01 08:28:00,53.4,43.1,30.35,North,360,8.0,11.0,68,0.00,,,0.01,Wunderground v.1.15,2013-05-01 12:28:00,
2013-05-01 08:30:00,53.7,43.4,30.35,North,360,8.0,8.0,68,0.00,,,0.01,Wunderground v.1.15,2013-05-01 12:30:00,
2013-05-01 08:32:00,53.9,43.2,30.36,North,360,8.0,8.0,67,0.00,,,0.01,Wunderground v.1.15,2013-05-01 12:32:00,
2013-05-01 08:34:00,54.1,43.4,30.36,North,360,7.0,8.0,67,0.00,,,0.01,Wunderground v.1.15,2013-05-01 12:34:00,
2013-05-01 08:38:00,54.2,43.1,30.35,North,360,7.0,9.0,66,0.00,,,0.01,Wunderground v.1.15,2013-05-01 12:38:00,
2013-05-01 08:40:00,54.2,43.1,30.36,North,360,7.0,7.0,66,0.00,,,0.01,Wunderground v.1.15,2013-05-01 12:40:00,
2013-05-01 08:42:00,54.3,43.2,30.36,North,360,7.0,7.0,66,0.00,,,0.01,Wunderground v.1.15,2013-05-01 12:42:00,
2013-05-01 08:44:00,54.4,43.3,30.36,North,360,7.0,7.0,66,0.00,,,0.01,Wunderground v.1.15,2013-05-01 12:44:00,
2013-05-01 08:48:00,54.7,43.2,30.36,North,360,7.0,10.0,65,0.00,,,0.01,Wunderground v.1.15,2013-05-01 12:48:00,
2013-05-01 08:50:00,54.5,43.4,30.36,North,360,7.0,11.0,66,0.00,,,0.01,Wunderground v.1.15,2013-05-01 12:50:00,
2013-05-01 08:56:00,54.4,43.7,30.36,North,360,9.0,11.0,67,0.00,,,0.01,Wunderground v.1.15,2013-05-01 12:56:00,
2013-05-01 08:58:00,54.6,43.5,30.36,North,360,9.0,11.0,66,0.00,,,0.01,Wunderground v.1.15,2013-05-01 12:58:00,
2013-05-01 09:00:00,54.8,44.0,30.36,North,360,7.0,7.0,67,0.00,,,0.01,Wunderground v.1.15,2013-05-01 13:00:00,
2013-05-01 09:02:00,55.1,43.9,30.36,North,360,7.0,8.0,66,0.00,,,0.01,Wunderground v.1.15,2013-05-01 13:02:00,
2013-05-01 09:06:00,55.3,44.1,30.36,North,360,6.0,8.0,66,0.00,,,0.01,Wunderground v.1.15,2013-05-01 13:06:00,
2013-05-01 09:08:00,55.8,44.6,30.36,North,360,6.0,8.0,66,0.00,,,0.01,Wunderground v.1.15,2013-05-01 13:08:00,
2013-05-01 09:12:00,55.9,43.9,30.36,North,360,7.0,9.0,64,0.00,,,0.01,Wunderground v.1.15,2013-05-01 13:12:00,
2013-05-01 09:14:00,55.8,44.2,30.36,North,360,7.0,10.0,65,0.00,,,0.01,Wunderground v.1.15,2013-05-01 13:14:00,
2013-05-01 09:16:00,55.8,44.2,30.36,North,360,8.0,10.0,65,0.00,,,0.01,Wunderground v.1.15,2013-05-01 13:16:00,
2013-05-01 09:18:00,56.2,45.0,30.36,North,360,8.0,10.0,66,0.00,,,0.01,Wunderground v.1.15,2013-05-01 13:18:00,
2013-05-01 09:20:00,56.6,45.0,30.36,North,360,8.0,8.0,65,0.00,,,0.01,Wunderground v.1.15,2013-05-01 13:20:00,
2013-05-01 09:24:00,56.9,44.4,30.37,North,360,7.0,8.0,63,0.00,,,0.01,Wunderground v.1.15,2013-05-01 13:24:00,
2013-05-01 09:26:00,56.7,44.7,30.36,North,360,7.0,8.0,64,0.00,,,0.01,Wunderground v.1.15,2013-05-01 13:26:00,
2013-05-01 09:28:00,56.7,44.7,30.37,North,360,7.0,8.0,64,0.00,,,0.01,Wunderground v.1.15,2013-05-01 13:28:00,
2013-05-01 09:34:00,57.4,45.3,30.37,North,360,6.0,8.0,64,0.00,,,0.01,Wunderground v.1.15,2013-05-01 13:34:00,
2013-05-01 09:36:00,57.7,45.2,30.37,North,360,6.0,8.0,63,0.00,,,0.01,Wunderground v.1.15,2013-05-01 13:36:00,
2013-05-01 09:40:00,57.9,44.5,30.37,North,360,7.0,11.0,61,0.00,,,0.01,Wunderground v.1.15,2013-05-01 13:40:00,
2013-05-01 09:42:00,57.7,43.9,30.36,North,360,7.0,11.0,60,0.00,,,0.01,Wunderground v.1.15,2013-05-01 13:42:00,
2013-05-01 09:44:00,57.4,43.6,30.37,North,360,8.0,11.0,60,0.00,,,0.01,Wunderground v.1.15,2013-05-01 13:44:00,
2013-05-01 09:46:00,57.5,43.7,30.37,North,360,9.0,13.0,60,0.00,,,0.01,Wunderground v.1.15,2013-05-01 13:46:00,
2013-05-01 09:52:00,57.6,43.4,30.37,North,360,10.0,12.0,59,0.00,,,0.01,Wunderground v.1.15,2013-05-01 13:52:00,
2013-05-01 09:54:00,57.8,44.0,30.37,North,360,9.0,12.0,60,0.00,,,0.01,Wunderground v.1.15,2013-05-01 13:54:00,
2013-05-01 09:56:00,57.9,43.7,30.37,North,360,10.0,12.0,59,0.00,,,0.01,Wunderground v.1.15,2013-05-01 13:56:00,
2013-05-01 09:58:00,58.3,44.0,30.37,North,360,9.0,12.0,59,0.00,,,0.01,Wunderground v.1.15,2013-05-01 13:58:00,
2013-05-01 10:00:00,58.5,43.8,30.37,North,360,8.0,8.0,58,0.00,,,0.01,Wunderground v.1.15,2013-05-01 14:00:00,
2013-05-01 10:02:00,58.7,44.0,30.37,North,360,8.0,8.0,58,0.00,,,0.01,Wunderground v.1.15,2013-05-01 14:02:00,
2013-05-01 10:06:00,59.2,44.0,30.38,North,360,7.0,10.0,57,0.00,,,0.01,Wunderground v.1.15,2013-05-01 14:06:00,
2013-05-01 10:08:00,59.2,44.0,30.37,North,360,7.0,10.0,57,0.00,,,0.01,Wunderground v.1.15,2013-05-01 14:08:00,
2013-05-01 10:10:00,59.1,43.4,30.37,North,360,7.0,13.0,56,0.00,,,0.01,Wunderground v.1.15,2013-05-01 14:10:00,
2013-05-01 10:12:00,58.9,43.2,30.37,North,360,8.0,13.0,56,0.00,,,0.01,Wunderground v.1.15,2013-05-01 14:12:00,
2013-05-01 10:14:00,59.0,43.3,30.37,North,360,9.0,13.0,56,0.00,,,0.01,Wunderground v.1.15,2013-05-01 14:14:00,
2013-05-01 10:16:00,59.2,44.0,30.38,North,360,9.0,13.0,57,0.00,,,0.01,Wunderground v.1.15,2013-05-01 14:16:00,
2013-05-01 10:18:00,59.7,43.5,30.37,North,360,9.0,13.0,55,0.00,,,0.01,Wunderground v.1.15,2013-05-01 14:18:00,
2013-05-01 10:20:00,59.6,43.4,30.38,North,360,9.0,10.0,55,0.00,,,0.01,Wunderground v.1.15,2013-05-01 14:20:00,
2013-05-01 10:24:00,59.8,43.6,30.38,North,360,8.0,10.0,55,0.00,,,0.01,Wunderground v.1.15,2013-05-01 14:24:00,
2013-05-01 10:26:00,59.9,43.2,30.38,North,360,8.0,12.0,54,0.00,,,0.01,Wunderground v.1.15,2013-05-01 14:26:00,
2013-05-01 10:30:00,60.2,43.0,30.38,North,360,10.0,11.0,53,0.00,,,0.01,Wunderground v.1.15,2013-05-01 14:30:00,
2013-05-01 10:32:00,60.1,43.4,30.38,North,360,10.0,11.0,54,0.00,,,0.01,Wunderground v.1.15,2013-05-01 14:32:00,
2013-05-01 10:34:00,60.2,43.5,30.38,North,360,10.0,11.0,54,0.00,,,0.01,Wunderground v.1.15,2013-05-01 14:34:00,
2013-05-01 10:40:00,60.7,43.5,30.38,North,360,8.0,10.0,53,0.00,,,0.01,Wunderground v.1.15,2013-05-01 14:40:00,
2013-05-01 10:42:00,60.7,43.9,30.38,North,360,8.0,12.0,54,0.00,,,0.01,Wunderground v.1.15,2013-05-01 14:42:00,
2013-05-01 10:46:00,60.5,43.3,30.38,North,360,9.0,12.0,53,0.00,,,0.01,Wunderground v.1.15,2013-05-01 14:46:00,
2013-05-01 10:48:00,60.6,43.9,30.38,North,360,9.0,12.0,54,0.00,,,0.01,Wunderground v.1.15,2013-05-01 14:48:00,
2013-05-01 10:50:00,60.6,43.4,30.38,North,360,9.0,9.0,53,0.00,,,0.01,Wunderground v.1.15,2013-05-01 14:50:00,
2013-05-01 10:52:00,60.8,44.0,30.39,North,360,9.0,12.0,54,0.00,,,0.01,Wunderground v.1.15,2013-05-01 14:52:00,
2013-05-01 10:54:00,60.9,43.6,30.38,North,360,9.0,12.0,53,0.00,,,0.01,Wunderground v.1.15,2013-05-01 14:54:00,
2013-05-01 10:56:00,61.0,43.7,30.38,North,360,8.0,12.0,53,0.00,,,0.01,Wunderground v.1.15,2013-05-01 14:56:00,
2013-05-01 10:58:00,61.1,43.8,30.38,North,360,9.0,12.0,53,0.00,,,0.01,Wunderground v.1.15,2013-05-01 14:58:00,
2013-05-01 11:02:00,61.8,44.5,30.38,North,360,9.0,10.0,53,0.00,,,0.01,Wunderground v.1.15,2013-05-01 15:02:00,
2013-05-01 11:04:00,62.1,43.7,30.39,North,360,9.0,10.0,51,0.00,,,0.01,Wunderground v.1.15,2013-05-01 15:04:00,
2013-05-01 11:08:00,62.2,43.3,30.39,North,360,9.0,10.0,50,0.00,,,0.01,Wunderground v.1.15,2013-05-01 15:08:00,
2013-05-01 11:10:00,62.2,43.8,30.39,North,360,9.0,9.0,51,0.00,,,0.01,Wunderground v.1.15,2013-05-01 15:10:00,
2013-05-01 11:12:00,62.4,44.5,30.39,North,360,9.0,13.0,52,0.00,,,0.01,Wunderground v.1.15,2013-05-01 15:12:00,
2013-05-01 11:16:00,62.3,44.4,30.38,North,360,8.0,13.0,52,0.00,,,0.01,Wunderground v.1.15,2013-05-01 15:16:00,
2013-05-01 11:18:00,62.7,43.8,30.38,North,360,8.0,14.0,50,0.00,,,0.01,Wunderground v.1.15,2013-05-01 15:18:00,
2013-05-01 11:20:00,62.9,43.4,30.38,North,360,8.0,12.0,49,0.00,,,0.01,Wunderground v.1.15,2013-05-01 15:20:00,
2013-05-01 11:22:00,62.9,42.9,30.38,North,360,9.0,12.0,48,0.00,,,0.01,Wunderground v.1.15,2013-05-01 15:22:00,
2013-05-01 11:28:00,63.0,41.9,30.38,North,360,9.0,12.0,46,0.00,,,0.01,Wunderground v.1.15,2013-05-01 15:28:00,
2013-05-01 11:30:00,63.2,41.5,30.38,North,360,9.0,10.0,45,0.00,,,0.01,Wunderground v.1.15,2013-05-01 15:30:00,
2013-05-01 11:34:00,63.2,40.3,30.38,North,360,11.0,11.0,43,0.00,,,0.01,Wunderground v.1.15,2013-05-01 15:34:00,
2013-05-01 11:36:00,63.1,40.8,30.37,North,360,11.0,11.0,44,0.00,,,0.01,Wunderground v.1.15,2013-05-01 15:36:00,
2013-05-01 11:40:00,63.1,40.2,30.37,North,360,12.0,12.0,43,0.00,,,0.01,Wunderground v.1.15,2013-05-01 15:40:00,
2013-05-01 11:42:00,62.9,40.0,30.37,North,360,12.0,12.0,43,0.00,,,0.01,Wunderground v.1.15,2013-05-01 15:42:00,
2013-05-01 11:44:00,63.0,40.1,30.37,North,360,12.0,12.0,43,0.00,,,0.01,Wunderground v.1.15,2013-05-01 15:44:00,
2013-05-01 11:46:00,63.2,40.9,30.37,North,360,12.0,12.0,44,0.00,,,0.01,Wunderground v.1.15,2013-05-01 15:46:00,
2013-05-01 11:48:00,63.4,40.5,30.37,North,360,12.0,12.0,43,0.00,,,0.01,Wunderground v.1.15,2013-05-01 15:48:00,
2013-05-01 11:50:00,63.4,39.9,30.37,North,360,11.0,14.0,42,0.00,,,0.01,Wunderground v.1.15,2013-05-01 15:50:00,
2013-05-01 11:52:00,63.7,40.2,30.37,North,360,12.0,16.0,42,0.00,,,0.01,Wunderground v.1.15,2013-05-01 15:52:00,
2013-05-01 11:56:00,63.8,39.0,30.38,North,360,13.0,16.0,40,0.00,,,0.01,Wunderground v.1.15,2013-05-01 15:56:00,
2013-05-01 12:02:00,63.8,39.6,30.38,North,360,13.0,14.0,41,0.00,,,0.01,Wunderground v.1.15,2013-05-01 16:02:00,
2013-05-01 12:06:00,64.1,39.9,30.38,North,360,11.0,14.0,41,0.00,,,0.01,Wunderground v.1.15,2013-05-01 16:06:00,
2013-05-01 12:08:00,64.3,40.1,30.38,North,360,11.0,14.0,41,0.00,,,0.01,Wunderground v.1.15,2013-05-01 16:08:00,
2013-05-01 12:10:00,64.3,40.1,30.38,North,360,10.0,10.0,41,0.00,,,0.01,Wunderground v.1.15,2013-05-01 16:10:00,
2013-05-01 12:12:00,64.3,40.1,30.37,North,360,10.0,10.0,41,0.00,,,0.01,Wunderground v.1.15,2013-05-01 16:12:00,
2013-05-01 12:16:00,64.4,40.2,30.37,North,360,10.0,12.0,41,0.00,,,0.01,Wunderground v.1.15,2013-05-01 16:16:00,
2013-05-01 12:18:00,64.5,40.9,30.37,North,360,9.0,12.0,42,0.00,,,0.01,Wunderground v.1.15,2013-05-01 16:18:00,
2013-05-01 12:20:00,64.4,40.8,30.37,North,360,9.0,9.0,42,0.00,,,0.01,Wunderground v.1.15,2013-05-01 16:20:00,
2013-05-01 12:26:00,64.9,41.2,30.37,North,360,8.0,9.0,42,0.00,,,0.01,Wunderground v.1.15,2013-05-01 16:26:00,
2013-05-01 12:28:00,64.9,41.2,30.37,North,360,8.0,11.0,42,0.00,,,0.01,Wunderground v.1.15,2013-05-01 16:28:00,
2013-05-01 12:30:00,64.6,41.0,30.37,North,360,8.0,11.0,42,0.00,,,0.01,Wunderground v.1.15,2013-05-01 16:30:00,
2013-05-01 12:34:00,64.2,40.6,30.37,North,360,10.0,11.0,42,0.00,,,0.01,Wunderground v.1.15,2013-05-01 16:34:00,
2013-05-01 12:36:00,64.7,41.1,30.37,North,360,10.0,11.0,42,0.00,,,0.01,Wunderground v.1.15,2013-05-01 16:36:00,
2013-05-01 12:38:00,64.9,40.6,30.37,North,360,9.0,11.0,41,0.00,,,0.01,Wunderground v.1.15,2013-05-01 16:38:00,
2013-05-01 12:40:00,64.9,41.2,30.37,North,360,8.0,8.0,42,0.00,,,0.01,Wunderground v.1.15,2013-05-01 16:40:00,
2013-05-01 12:42:00,64.9,41.9,30.37,North,360,7.0,12.0,43,0.00,,,0.01,Wunderground v.1.15,2013-05-01 16:42:00,
2013-05-01 12:44:00,64.7,41.1,30.37,North,360,7.0,12.0,42,0.00,,,0.01,Wunderground v.1.15,2013-05-01 16:44:00,
2013-05-01 12:48:00,65.0,41.9,30.36,North,360,9.0,13.0,43,0.00,,,0.01,Wunderground v.1.15,2013-05-01 16:48:00,
2013-05-01 12:50:00,65.2,40.3,30.36,North,360,10.0,12.0,40,0.00,,,0.01,Wunderground v.1.15,2013-05-01 16:50:00,
2013-05-01 12:52:00,64.9,40.6,30.36,North,360,11.0,12.0,41,0.00,,,0.01,Wunderground v.1.15,2013-05-01 16:52:00,
2013-05-01 12:54:00,64.9,40.6,30.36,North,360,11.0,13.0,41,0.00,,,0.01,Wunderground v.1.15,2013-05-01 16:54:00,
2013-05-01 12:58:00,64.5,40.3,30.36,North,360,13.0,14.0,41,0.00,,,0.01,Wunderground v.1.15,2013-05-01 16:58:00,
2013-05-01 13:00:00,64.6,40.4,30.36,North,360,13.0,13.0,41,0.00,,,0.01,Wunderground v.1.15,2013-05-01 17:00:00,
2013-05-01 13:02:00,64.7,40.4,30.36,North,360,11.0,13.0,41,0.00,,,0.01,Wunderground v.1.15,2013-05-01 17:02:00,
2013-05-01 13:04:00,65.3,41.6,30.36,North,360,11.0,13.0,42,0.00,,,0.01,Wunderground v.1.15,2013-05-01 17:04:00,
2013-05-01 13:06:00,65.8,40.8,30.36,North,360,11.0,13.0,40,0.00,,,0.01,Wunderground v.1.15,2013-05-01 17:06:00,
2013-05-01 13:08:00,65.6,40.6,30.36,North,360,10.0,14.0,40,0.00,,,0.01,Wunderground v.1.15,2013-05-01 17:08:00,
2013-05-01 13:12:00,65.3,41.6,30.36,North,360,10.0,11.0,42,0.00,,,0.01,Wunderground v.1.15,2013-05-01 17:12:00,
2013-05-01 13:14:00,65.2,41.5,30.36,North,360,10.0,12.0,42,0.00,,,0.01,Wunderground v.1.15,2013-05-01 17:14:00,
2013-05-01 13:16:00,65.3,41.6,30.36,North,360,10.0,12.0,42,0.00,,,0.01,Wunderground v.1.15,2013-05-01 17:16:00,
2013-05-01 13:18:00,65.3,40.3,30.36,North,360,10.0,12.0,40,0.00,,,0.01,Wunderground v.1.15,2013-05-01 17:18:00,
2013-05-01 13:20:00,65.4,40.4,30.36,North,360,10.0,11.0,40,0.00,,,0.01,Wunderground v.1.15,2013-05-01 17:20:00,
2013-05-01 13:22:00,65.2,40.9,30.36,North,360,10.0,13.0,41,0.00,,,0.01,Wunderground v.1.15,2013-05-01 17:22:00,
2013-05-01 13:24:00,64.9,41.2,30.36,North,360,11.0,13.0,42,0.00,,,0.01,Wunderground v.1.15,2013-05-01 17:24:00,
2013-05-01 13:28:00,64.6,41.6,30.36,North,360,10.0,13.0,43,0.00,,,0.01,Wunderground v.1.15,2013-05-01 17:28:00,
2013-05-01 13:30:00,64.8,41.8,30.36,North,360,10.0,10.0,43,0.00,,,0.01,Wunderground v.1.15,2013-05-01 17:30:00,
2013-05-01 13:34:00,65.8,42.1,30.36,North,360,10.0,11.0,42,0.00,,,0.01,Wunderground v.1.15,2013-05-01 17:34:00,
2013-05-01 13:36:00,65.8,42.1,30.36,North,360,10.0,11.0,42,0.00,,,0.01,Wunderground v.1.15,2013-05-01 17:36:00,
2013-05-01 13:38:00,65.6,41.9,30.36,North,360,10.0,11.0,42,0.00,,,0.01,Wunderground v.1.15,2013-05-01 17:38:00,
2013-05-01 13:40:00,65.5,42.4,30.36,North,360,10.0,10.0,43,0.00,,,0.01,Wunderground v.1.15,2013-05-01 17:40:00,
2013-05-01 13:44:00,65.7,42.6,30.36,North,360,10.0,12.0,43,0.00,,,0.01,Wunderground v.1.15,2013-05-01 17:44:00,
2013-05-01 13:48:00,66.1,42.9,30.36,North,360,10.0,12.0,43,0.00,,,0.01,Wunderground v.1.15,2013-05-01 17:48:00,
2013-05-01 13:52:00,66.1,42.9,30.36,North,360,10.0,12.0,43,0.00,,,0.01,Wunderground v.1.15,2013-05-01 17:52:00,
2013-05-01 13:54:00,66.2,43.6,30.36,North,360,9.0,12.0,44,0.00,,,0.01,Wunderground v.1.15,2013-05-01 17:54:00,
2013-05-01 13:58:00,66.4,42.6,30.36,North,360,9.0,20.0,42,0.00,,,0.01,Wunderground v.1.15,2013-05-01 17:58:00,
2013-05-01 14:02:00,66.1,42.9,30.36,North,360,10.0,13.0,43,0.00,,,0.01,Wunderground v.1.15,2013-05-01 18:02:00,
2013-05-01 14:04:00,66.3,41.9,30.36,North,360,11.0,13.0,41,0.00,,,0.01,Wunderground v.1.15,2013-05-01 18:04:00,
2013-05-01 14:06:00,66.4,43.2,30.36,North,360,11.0,13.0,43,0.00,,,0.01,Wunderground v.1.15,2013-05-01 18:06:00,
2013-05-01 14:08:00,66.6,42.8,30.35,North,360,11.0,13.0,42,0.00,,,0.01,Wunderground v.1.15,2013-05-01 18:08:00,
2013-05-01 14:14:00,66.7,42.2,30.36,North,360,8.0,10.0,41,0.00,,,0.01,Wunderground v.1.15,2013-05-01 18:14:00,
2013-05-01 14:16:00,66.7,42.2,30.36,North,360,9.0,14.0,41,0.00,,,0.01,Wunderground v.1.15,2013-05-01 18:16:00,
2013-05-01 14:18:00,66.6,42.8,30.36,North,360,10.0,14.0,42,0.00,,,0.01,Wunderground v.1.15,2013-05-01 18:18:00,
2013-05-01 14:20:00,66.6,42.8,30.36,North,360,10.0,10.0,42,0.00,,,0.01,Wunderground v.1.15,2013-05-01 18:20:00,
2013-05-01 14:22:00,66.7,42.2,30.35,North,360,10.0,10.0,41,0.00,,,0.01,Wunderground v.1.15,2013-05-01 18:22:00,
2013-05-01 14:24:00,67.0,43.8,30.35,North,360,10.0,10.0,43,0.00,,,0.01,Wunderground v.1.15,2013-05-01 18:24:00,
2013-05-01 14:26:00,67.2,43.3,30.36,North,360,8.0,10.0,42,0.00,,,0.01,Wunderground v.1.15,2013-05-01 18:26:00,
2013-05-01 14:32:00,67.3,42.8,30.35,North,360,7.0,13.0,41,0.00,,,0.01,Wunderground v.1.15,2013-05-01 18:32:00,
2013-05-01 14:34:00,66.9,41.8,30.35,North,360,8.0,13.0,40,0.00,,,0.01,Wunderground v.1.15,2013-05-01 18:34:00,
2013-05-01 14:38:00,67.0,42.5,30.35,North,360,10.0,13.0,41,0.00,,,0.01,Wunderground v.1.15,2013-05-01 18:38:00,
2013-05-01 14:42:00,66.6,42.2,30.35,North,360,9.0,9.0,41,0.00,,,0.01,Wunderground v.1.15,2013-05-01 18:42:00,
2013-05-01 14:44:00,66.9,41.8,30.35,North,360,8.0,12.0,40,0.00,,,0.01,Wunderground v.1.15,2013-05-01 18:44:00,
2013-05-01 14:46:00,67.1,42.0,30.36,North,360,9.0,12.0,40,0.00,,,0.01,Wunderground v.1.15,2013-05-01 18:46:00,
2013-05-01 14:48:00,67.2,41.4,30.36,North,360,8.0,15.0,39,0.00,,,0.01,Wunderground v.1.15,2013-05-01 18:48:00,
2013-05-01 14:50:00,67.2,42.0,30.35,North,360,8.0,8.0,40,0.00,,,0.01,Wunderground v.1.15,2013-05-01 18:50:00,
2013-05-01 14:54:00,67.8,41.3,30.35,North,360,10.0,10.0,38,0.00,,,0.01,Wunderground v.1.15,2013-05-01 18:54:00,
2013-05-01 14:56:00,67.8,41.3,30.35,North,360,9.0,15.0,38,0.00,,,0.01,Wunderground v.1.15,2013-05-01 18:56:00,
2013-05-01 15:02:00,67.1,40.6,30.35,North,360,11.0,11.0,38,0.00,,,0.01,Wunderground v.1.15,2013-05-01 19:02:00,
2013-05-01 15:04:00,67.4,41.6,30.35,North,360,11.0,16.0,39,0.00,,,0.01,Wunderground v.1.15,2013-05-01 19:04:00,
2013-05-01 15:10:00,67.2,41.4,30.35,North,360,8.0,8.0,39,0.00,,,0.01,Wunderground v.1.15,2013-05-01 19:10:00,
2013-05-01 15:12:00,67.3,41.5,30.35,North,360,9.0,15.0,39,0.00,,,0.01,Wunderground v.1.15,2013-05-01 19:12:00,
2013-05-01 15:16:00,67.8,40.6,30.35,North,360,9.0,15.0,37,0.00,,,0.01,Wunderground v.1.15,2013-05-01 19:16:00,
2013-05-01 15:20:00,68.0,41.4,30.35,North,360,10.0,10.0,38,0.00,,,0.01,Wunderground v.1.15,2013-05-01 19:20:00,
2013-05-01 15:22:00,67.9,42.7,30.35,North,360,9.0,10.0,40,0.00,,,0.01,Wunderground v.1.15,2013-05-01 19:22:00,
2013-05-01 15:28:00,67.9,42.7,30.35,North,360,8.0,10.0,40,0.00,,,0.01,Wunderground v.1.15,2013-05-01 19:28:00,
2013-05-01 15:32:00,68.4,42.5,30.35,North,360,8.0,12.0,39,0.00,,,0.01,Wunderground v.1.15,2013-05-01 19:32:00,
2013-05-01 15:34:00,68.4,42.5,30.35,North,360,7.0,12.0,39,0.00,,,0.01,Wunderground v.1.15,2013-05-01 19:34:00,
2013-05-01 15:36:00,68.4,42.5,30.35,North,360,7.0,12.0,39,0.00,,,0.01,Wunderground v.1.15,2013-05-01 19:36:00,
2013-05-01 15:40:00,68.2,41.6,30.35,North,360,9.0,12.0,38,0.00,,,0.01,Wunderground v.1.15,2013-05-01 19:40:00,
2013-05-01 15:42:00,68.2,41.6,30.35,North,360,9.0,12.0,38,0.00,,,0.01,Wunderground v.1.15,2013-05-01 19:42:00,
2013-05-01 15:44:00,68.3,41.0,30.35,North,360,8.0,12.0,37,0.00,,,0.01,Wunderground v.1.15,2013-05-01 19:44:00,
2013-05-01 15:46:00,68.4,41.8,30.35,North,360,9.0,12.0,38,0.00,,,0.01,Wunderground v.1.15,2013-05-01 19:46:00,
2013-05-01 15:50:00,68.3,41.0,30.35,North,360,9.0,13.0,37,0.00,,,0.01,Wunderground v.1.15,2013-05-01 19:50:00,
2013-05-01 15:52:00,68.5,41.2,30.35,North,360,9.0,13.0,37,0.00,,,0.01,Wunderground v.1.15,2013-05-01 19:52:00,
2013-05-01 15:54:00,68.3,41.0,30.35,North,360,9.0,13.0,37,0.00,,,0.01,Wunderground v.1.15,2013-05-01 19:54:00,
2013-05-01 15:58:00,68.7,42.1,30.35,North,360,7.0,13.0,38,0.00,,,0.01,Wunderground v.1.15,2013-05-01 19:58:00,
2013-05-01 16:00:00,69.0,42.3,30.35,North,360,6.0,9.0,38,0.00,,,0.01,Wunderground v.1.15,2013-05-01 20:00:00,
2013-05-01 16:02:00,69.1,41.7,30.34,North,360,6.0,10.0,37,0.00,,,0.01,Wunderground v.1.15,2013-05-01 20:02:00,
2013-05-01 16:04:00,68.8,42.1,30.35,North,360,7.0,14.0,38,0.00,,,0.01,Wunderground v.1.15,2013-05-01 20:04:00,
2013-05-01 16:06:00,68.4,42.5,30.35,North,360,9.0,14.0,39,0.00,,,0.01,Wunderground v.1.15,2013-05-01 20:06:00,
2013-05-01 16:08:00,68.1,42.2,30.35,North,360,10.0,14.0,39,0.00,,,0.01,Wunderground v.1.15,2013-05-01 20:08:00,
2013-05-01 16:10:00,68.0,42.8,30.35,North,360,9.0,9.0,40,0.00,,,0.01,Wunderground v.1.15,2013-05-01 20:10:00,
2013-05-01 16:12:00,68.1,42.2,30.35,North,360,9.0,10.0,39,0.00,,,0.01,Wunderground v.1.15,2013-05-01 20:12:00,
2013-05-01 16:14:00,68.1,42.2,30.35,North,360,9.0,10.0,39,0.00,,,0.01,Wunderground v.1.15,2013-05-01 20:14:00,
2013-05-01 16:18:00,68.5,41.9,30.35,North,360,8.0,12.0,38,0.00,,,0.01,Wunderground v.1.15,2013-05-01 20:18:00,
2013-05-01 16:20:00,68.5,41.2,30.35,North,360,9.0,14.0,37,0.00,,,0.01,Wunderground v.1.15,2013-05-01 20:20:00,
2013-05-01 16:24:00,68.5,41.9,30.35,North,360,9.0,14.0,38,0.00,,,0.01,Wunderground v.1.15,2013-05-01 20:24:00,
2013-05-01 16:30:00,68.8,41.5,30.34,North,360,7.0,7.0,37,0.00,,,0.01,Wunderground v.1.15,2013-05-01 20:30:00,
2013-05-01 16:32:00,68.8,41.5,30.35,North,360,7.0,13.0,37,0.00,,,0.01,Wunderground v.1.15,2013-05-01 20:32:00,
2013-05-01 16:34:00,68.8,42.1,30.35,North,360,8.0,13.0,38,0.00,,,0.01,Wunderground v.1.15,2013-05-01 20:34:00,
2013-05-01 16:36:00,68.8,42.1,30.35,North,360,8.0,13.0,38,0.00,,,0.01,Wunderground v.1.15,2013-05-01 20:36:00,
2013-05-01 16:38:00,68.8,42.1,30.35,North,360,9.0,13.0,38,0.00,,,0.01,Wunderground v.1.15,2013-05-01 20:38:00,
2013-05-01 16:42:00,68.8,42.8,30.35,North,360,8.0,10.0,39,0.00,,,0.01,Wunderground v.1.15,2013-05-01 20:42:00,
2013-05-01 16:44:00,68.9,42.2,30.35,North,360,8.0,16.0,38,0.00,,,0.01,Wunderground v.1.15,2013-05-01 20:44:00,
2013-05-01 16:46:00,68.5,41.9,30.35,North,360,9.0,16.0,38,0.00,,,0.01,Wunderground v.1.15,2013-05-01 20:46:00,
2013-05-01 16:48:00,68.5,42.6,30.35,North,360,9.0,16.0,39,0.00,,,0.01,Wunderground v.1.15,2013-05-01 20:48:00,
2013-05-01 16:50:00,68.8,42.1,30.35,North,360,9.0,12.0,38,0.00,,,0.01,Wunderground v.1.15,2013-05-01 20:50:00,
2013-05-01 16:54:00,69.0,43.0,30.35,North,360,9.0,13.0,39,0.00,,,0.01,Wunderground v.1.15,2013-05-01 20:54:00,
2013-05-01 16:56:00,68.8,41.5,30.35,North,360,9.0,13.0,37,0.00,,,0.01,Wunderground v.1.15,2013-05-01 20:56:00,
2013-05-01 16:58:00,68.6,41.3,30.35,North,360,9.0,13.0,37,0.00,,,0.01,Wunderground v.1.15,2013-05-01 20:58:00,
2013-05-01 17:00:00,68.2,41.6,30.35,North,360,8.0,8.0,38,0.00,,,0.01,Wunderground v.1.15,2013-05-01 21:00:00,
2013-05-01 17:04:00,68.2,41.6,30.36,North,360,10.0,13.0,38,0.00,,,0.01,Wunderground v.1.15,2013-05-01 21:04:00,
2013-05-01 17:06:00,68.1,41.5,30.36,North,360,10.0,13.0,38,0.00,,,0.01,Wunderground v.1.15,2013-05-01 21:06:00,
2013-05-01 17:08:00,67.9,41.3,30.36,North,360,9.0,13.0,38,0.00,,,0.01,Wunderground v.1.15,2013-05-01 21:08:00,
2013-05-01 17:10:00,68.0,41.4,30.36,North,360,8.0,9.0,38,0.00,,,0.01,Wunderground v.1.15,2013-05-01 21:10:00,
2013-05-01 17:12:00,68.1,41.5,30.36,North,360,8.0,12.0,38,0.00,,,0.01,Wunderground v.1.15,2013-05-01 21:12:00,
2013-05-01 17:14:00,67.9,41.3,30.36,North,360,7.0,12.0,38,0.00,,,0.01,Wunderground v.1.15,2013-05-01 21:14:00,
2013-05-01 17:18:00,68.4,41.8,30.36,North,360,7.0,12.0,38,0.00,,,0.01,Wunderground v.1.15,2013-05-01 21:18:00,
2013-05-01 17:22:00,68.6,41.3,30.36,North,360,7.0,11.0,37,0.00,,,0.01,Wunderground v.1.15,2013-05-01 21:22:00,
2013-05-01 17:26:00,68.2,41.6,30.36,North,360,8.0,12.0,38,0.00,,,0.01,Wunderground v.1.15,2013-05-01 21:26:00,
2013-05-01 17:28:00,68.1,41.5,30.36,North,360,9.0,12.0,38,0.00,,,0.01,Wunderground v.1.15,2013-05-01 21:28:00,
2013-05-01 17:32:00,68.2,41.6,30.36,North,360,9.0,12.0,38,0.00,,,0.01,Wunderground v.1.15,2013-05-01 21:32:00,
2013-05-01 17:34:00,68.0,41.4,30.36,North,360,9.0,12.0,38,0.00,,,0.01,Wunderground v.1.15,2013-05-01 21:34:00,
2013-05-01 17:38:00,67.8,41.3,30.36,North,360,7.0,12.0,38,0.00,,,0.01,Wunderground v.1.15,2013-05-01 21:38:00,
2013-05-01 17:40:00,68.1,41.5,30.36,North,360,8.0,8.0,38,0.00,,,0.01,Wunderground v.1.15,2013-05-01 21:40:00,
2013-05-01 17:42:00,68.2,41.6,30.36,North,360,7.0,10.0,38,0.00,,,0.01,Wunderground v.1.15,2013-05-01 21:42:00,
2013-05-01 17:46:00,68.5,41.9,30.36,North,360,7.0,10.0,38,0.00,,,0.01,Wunderground v.1.15,2013-05-01 21:46:00,
2013-05-01 17:48:00,68.5,41.2,30.36,North,360,8.0,12.0,37,0.00,,,0.01,Wunderground v.1.15,2013-05-01 21:48:00,
2013-05-01 17:52:00,67.9,40.7,30.36,North,360,8.0,11.0,37,0.00,,,0.01,Wunderground v.1.15,2013-05-01 21:52:00,
2013-05-01 17:56:00,68.0,41.4,30.36,North,360,7.0,11.0,38,0.00,,,0.01,Wunderground v.1.15,2013-05-01 21:56:00,
2013-05-01 17:58:00,68.2,41.6,30.36,North,360,7.0,11.0,38,0.00,,,0.01,Wunderground v.1.15,2013-05-01 21:58:00,
2013-05-01 18:02:00,68.3,41.7,30.36,North,360,7.0,14.0,38,0.00,,,0.01,Wunderground v.1.15,2013-05-01 22:02:00,
2013-05-01 18:04:00,68.1,40.8,30.36,North,360,8.0,14.0,37,0.00,,,0.01,Wunderground v.1.15,2013-05-01 22:04:00,
2013-05-01 18:06:00,67.9,40.7,30.36,North,360,8.0,14.0,37,0.00,,,0.01,Wunderground v.1.15,2013-05-01 22:06:00,
2013-05-01 18:10:00,67.7,40.5,30.36,North,360,9.0,10.0,37,0.00,,,0.01,Wunderground v.1.15,2013-05-01 22:10:00,
2013-05-01 18:14:00,67.9,40.7,30.36,North,360,7.0,10.0,37,0.00,,,0.01,Wunderground v.1.15,2013-05-01 22:14:00,
2013-05-01 18:18:00,68.0,40.7,30.36,North,360,7.0,10.0,37,0.00,,,0.01,Wunderground v.1.15,2013-05-01 22:18:00,
2013-05-01 18:20:00,68.0,40.0,30.36,North,360,7.0,7.0,36,0.00,,,0.01,Wunderground v.1.15,2013-05-01 22:20:00,
2013-05-01 18:24:00,68.0,40.7,30.36,North,360,8.0,8.0,37,0.00,,,0.01,Wunderground v.1.15,2013-05-01 22:24:00,
2013-05-01 18:26:00,68.1,40.1,30.36,North,360,8.0,9.0,36,0.00,,,0.01,Wunderground v.1.15,2013-05-01 22:26:00,
2013-05-01 18:30:00,68.1,40.1,30.36,North,360,7.0,10.0,36,0.00,,,0.01,Wunderground v.1.15,2013-05-01 22:30:00,
2013-05-01 18:32:00,67.9,39.9,30.36,North,360,7.0,10.0,36,0.00,,,0.01,Wunderground v.1.15,2013-05-01 22:32:00,
2013-05-01 18:36:00,67.7,40.5,30.36,North,360,6.0,10.0,37,0.00,,,0.01,Wunderground v.1.15,2013-05-01 22:36:00,
2013-05-01 18:38:00,67.8,40.6,30.36,North,360,7.0,10.0,37,0.00,,,0.01,Wunderground v.1.15,2013-05-01 22:38:00,
2013-05-01 18:40:00,67.8,39.9,30.36,North,360,7.0,7.0,36,0.00,,,0.01,Wunderground v.1.15,2013-05-01 22:40:00,
2013-05-01 18:42:00,67.7,40.5,30.36,North,360,7.0,8.0,37,0.00,,,0.01,Wunderground v.1.15,2013-05-01 22:42:00,
2013-05-01 18:44:00,67.6,40.4,30.36,North,360,8.0,12.0,37,0.00,,,0.01,Wunderground v.1.15,2013-05-01 22:44:00,
2013-05-01 18:48:00,67.5,40.3,30.36,North,360,8.0,12.0,37,0.00,,,0.01,Wunderground v.1.15,2013-05-01 22:48:00,
2013-05-01 18:50:00,67.5,40.3,30.36,North,360,9.0,9.0,37,0.00,,,0.01,Wunderground v.1.15,2013-05-01 22:50:00,
2013-05-01 18:52:00,67.4,40.2,30.36,North,360,8.0,9.0,37,0.00,,,0.01,Wunderground v.1.15,2013-05-01 22:52:00,
2013-05-01 18:54:00,67.4,40.2,30.36,North,360,8.0,11.0,37,0.00,,,0.01,Wunderground v.1.15,2013-05-01 22:54:00,
2013-05-01 19:00:00,67.2,40.0,30.36,North,360,8.0,8.0,37,0.00,,,0.01,Wunderground v.1.15,2013-05-01 23:00:00,
2013-05-01 19:02:00,67.2,40.0,30.36,North,360,8.0,8.0,37,0.00,,,0.01,Wunderground v.1.15,2013-05-01 23:02:00,
2013-05-01 19:04:00,67.3,40.1,30.36,North,360,7.0,8.0,37,0.00,,,0.01,Wunderground v.1.15,2013-05-01 23:04:00,
2013-05-01 19:10:00,67.3,40.8,30.36,North,360,6.0,6.0,38,0.00,,,0.01,Wunderground v.1.15,2013-05-01 23:10:00,
2013-05-01 19:12:00,67.4,40.2,30.36,North,360,6.0,7.0,37,0.00,,,0.01,Wunderground v.1.15,2013-05-01 23:12:00,
2013-05-01 19:16:00,67.3,40.8,30.36,North,360,6.0,7.0,38,0.00,,,0.01,Wunderground v.1.15,2013-05-01 23:16:00,
2013-05-01 19:18:00,67.4,40.9,30.36,North,360,5.0,7.0,38,0.00,,,0.01,Wunderground v.1.15,2013-05-01 23:18:00,
2013-05-01 19:20:00,67.5,41.0,30.36,North,360,5.0,5.0,38,0.00,,,0.01,Wunderground v.1.15,2013-05-01 23:20:00,
2013-05-01 19:22:00,67.5,40.3,30.36,North,360,5.0,10.0,37,0.00,,,0.01,Wunderground v.1.15,2013-05-01 23:22:00,
2013-05-01 19:24:00,67.3,40.8,30.36,North,360,5.0,10.0,38,0.00,,,0.01,Wunderground v.1.15,2013-05-01 23:24:00,
2013-05-01 19:28:00,67.0,40.5,30.36,North,360,6.0,10.0,38,0.00,,,0.01,Wunderground v.1.15,2013-05-01 23:28:00,
2013-05-01 19:30:00,66.9,41.1,30.36,North,360,6.0,6.0,39,0.00,,,0.01,Wunderground v.1.15,2013-05-01 23:30:00,
2013-05-01 19:32:00,67.0,41.2,30.36,North,360,6.0,6.0,39,0.00,,,0.01,Wunderground v.1.15,2013-05-01 23:32:00,
2013-05-01 19:34:00,67.1,41.3,30.35,North,360,5.0,6.0,39,0.00,,,0.01,Wunderground v.1.15,2013-05-01 23:34:00,
2013-05-01 19:36:00,67.2,41.4,30.36,North,360,5.0,6.0,39,0.00,,,0.01,Wunderground v.1.15,2013-05-01 23:36:00,
2013-05-01 19:38:00,67.1,41.3,30.36,North,360,5.0,6.0,39,0.00,,,0.01,Wunderground v.1.15,2013-05-01 23:38:00,
2013-05-01 19:46:00,66.7,41.6,30.36,North,360,5.0,7.0,40,0.00,,,0.01,Wunderground v.1.15,2013-05-01 23:46:00,
2013-05-01 19:48:00,66.4,41.3,30.36,North,360,6.0,7.0,40,0.00,,,0.01,Wunderground v.1.15,2013-05-01 23:48:00,
2013-05-01 19:52:00,66.3,41.2,30.36,North,360,7.0,10.0,40,0.00,,,0.01,Wunderground v.1.15,2013-05-01 23:52:00,
2013-05-01 19:56:00,65.9,41.5,30.36,North,360,8.0,9.0,41,0.00,,,0.01,Wunderground v.1.15,2013-05-01 23:56:00,
2013-05-01 19:58:00,65.8,42.1,30.36,North,360,8.0,9.0,42,0.00,,,0.01,Wunderground v.1.15,2013-05-01 23:58:00,
2013-05-01 20:00:00,65.7,42.0,30.36,North,360,8.0,17.0,42,0.00,,,0.01,Wunderground v.1.15,2013-05-02 00:00:00,
2013-05-01 20:04:00,65.2,44.5,30.37,North,360,9.0,17.0,47,0.00,,,0.01,Wunderground v.1.15,2013-05-02 00:04:00,
2013-05-01 20:08:00,64.3,47.3,30.37,North,360,10.0,17.0,54,0.00,,,0.01,Wunderground v.1.15,2013-05-02 00:08:00,
2013-05-01 20:10:00,63.7,47.2,30.37,North,360,12.0,15.0,55,0.00,,,0.01,Wunderground v.1.15,2013-05-02 00:10:00,
2013-05-01 20:12:00,63.3,47.3,30.37,North,360,13.0,15.0,56,0.00,,,0.01,Wunderground v.1.15,2013-05-02 00:12:00,
2013-05-01 20:14:00,62.9,47.9,30.37,North,360,13.0,15.0,58,0.00,,,0.01,Wunderground v.1.15,2013-05-02 00:14:00,
2013-05-01 20:18:00,62.6,48.1,30.38,North,360,12.0,15.0,59,0.00,,,0.01,Wunderground v.1.15,2013-05-02 00:18:00,
2013-05-01 20:24:00,61.6,47.6,30.38,North,360,12.0,14.0,60,0.00,,,0.01,Wunderground v.1.15,2013-05-02 00:24:00,
2013-05-01 20:26:00,61.5,47.9,30.38,North,360,12.0,14.0,61,0.00,,,0.01,Wunderground v.1.15,2013-05-02 00:26:00,
2013-05-01 20:28:00,61.5,47.9,30.38,North,360,11.0,14.0,61,0.00,,,0.01,Wunderground v.1.15,2013-05-02 00:28:00,
2013-05-01 20:30:00,61.6,48.0,30.38,North,360,10.0,13.0,61,0.00,,,0.01,Wunderground v.1.15,2013-05-02 00:30:00,
2013-05-01 20:34:00,61.2,47.6,30.38,North,360,8.0,13.0,61,0.00,,,0.01,Wunderground v.1.15,2013-05-02 00:34:00,
2013-05-01 20:36:00,61.1,47.5,30.38,North,360,8.0,13.0,61,0.00,,,0.01,Wunderground v.1.15,2013-05-02 00:36:00,
2013-05-01 20:38:00,61.1,48.0,30.38,North,360,8.0,13.0,62,0.00,,,0.01,Wunderground v.1.15,2013-05-02 00:38:00,
2013-05-01 20:40:00,61.0,47.9,30.38,North,360,8.0,8.0,62,0.00,,,0.01,Wunderground v.1.15,2013-05-02 00:40:00,
2013-05-01 20:44:00,60.8,47.7,30.39,North,360,7.0,14.0,62,0.00,,,0.01,Wunderground v.1.15,2013-05-02 00:44:00,
2013-05-01 20:46:00,60.7,47.6,30.38,North,360,7.0,14.0,62,0.00,,,0.01,Wunderground v.1.15,2013-05-02 00:46:00,
2013-05-01 20:48:00,60.7,47.2,30.39,North,360,7.0,14.0,61,0.00,,,0.01,Wunderground v.1.15,2013-05-02 00:48:00,
2013-05-01 20:50:00,60.4,46.9,30.39,North,360,9.0,14.0,61,0.00,,,0.01,Wunderground v.1.15,2013-05-02 00:50:00,
2013-05-01 20:52:00,60.1,46.6,30.39,North,360,10.0,14.0,61,0.00,,,0.01,Wunderground v.1.15,2013-05-02 00:52:00,
2013-05-01 20:54:00,59.9,46.4,30.39,North,360,12.0,14.0,61,0.00,,,0.01,Wunderground v.1.15,2013-05-02 00:54:00,
2013-05-01 20:58:00,59.7,46.7,30.39,North,360,13.0,14.0,62,0.00,,,0.01,Wunderground v.1.15,2013-05-02 00:58:00,
2013-05-01 21:00:00,59.7,46.7,30.39,North,360,13.0,13.0,62,0.00,,,0.01,Wunderground v.1.15,2013-05-02 01:00:00,
2013-05-01 21:04:00,59.8,46.7,30.39,North,360,9.0,13.0,62,0.00,,,0.01,Wunderground v.1.15,2013-05-02 01:04:00,
2013-05-01 21:06:00,59.8,46.7,30.39,North,360,8.0,13.0,62,0.00,,,0.01,Wunderground v.1.15,2013-05-02 01:06:00,
2013-05-01 21:10:00,59.7,46.7,30.40,North,360,7.0,7.0,62,0.00,,,0.01,Wunderground v.1.15,2013-05-02 01:10:00,
2013-05-01 21:14:00,59.6,46.6,30.40,North,360,7.0,7.0,62,0.00,,,0.01,Wunderground v.1.15,2013-05-02 01:14:00,
2013-05-01 21:18:00,59.5,46.5,30.40,North,360,7.0,7.0,62,0.00,,,0.01,Wunderground v.1.15,2013-05-02 01:18:00,
2013-05-01 21:20:00,59.5,46.9,30.40,North,360,7.0,7.0,63,0.00,,,0.01,Wunderground v.1.15,2013-05-02 01:20:00,
2013-05-01 21:22:00,59.5,46.5,30.40,North,360,7.0,7.0,62,0.00,,,0.01,Wunderground v.1.15,2013-05-02 01:22:00,
2013-05-01 21:26:00,59.4,46.8,30.40,North,360,7.0,7.0,63,0.00,,,0.01,Wunderground v.1.15,2013-05-02 01:26:00,
2013-05-01 21:28:00,59.3,46.7,30.40,North,360,6.0,7.0,63,0.00,,,0.01,Wunderground v.1.15,2013-05-02 01:28:00,
2013-05-01 21:32:00,59.2,46.6,30.40,North,360,6.0,6.0,63,0.00,,,0.01,Wunderground v.1.15,2013-05-02 01:32:00,
2013-05-01 21:34:00,59.2,46.6,30.41,North,360,6.0,6.0,63,0.00,,,0.01,Wunderground v.1.15,2013-05-02 01:34:00,
2013-05-01 21:38:00,59.1,46.9,30.41,North,360,5.0,6.0,64,0.00,,,0.01,Wunderground v.1.15,2013-05-02 01:38:00,
2013-05-01 21:44:00,59.2,46.6,30.41,North,360,5.0,10.0,63,0.00,,,0.01,Wunderground v.1.15,2013-05-02 01:44:00,
2013-05-01 21:48:00,58.9,46.7,30.41,North,360,6.0,10.0,64,0.00,,,0.01,Wunderground v.1.15,2013-05-02 01:48:00,
2013-05-01 21:50:00,58.9,46.7,30.41,North,360,7.0,7.0,64,0.00,,,0.01,Wunderground v.1.15,2013-05-02 01:50:00,
2013-05-01 21:56:00,58.7,46.5,30.41,North,360,7.0,11.0,64,0.00,,,0.01,Wunderground v.1.15,2013-05-02 01:56:00,
2013-05-01 21:58:00,58.5,46.4,30.40,North,360,8.0,11.0,64,0.00,,,0.01,Wunderground v.1.15,2013-05-02 01:58:00,
2013-05-01 22:02:00,58.3,46.6,30.40,North,360,8.0,8.0,65,0.00,,,0.01,Wunderground v.1.15,2013-05-02 02:02:00,
2013-05-01 22:06:00,58.2,46.5,30.40,North,360,8.0,11.0,65,0.00,,,0.01,Wunderground v.1.15,2013-05-02 02:06:00,
2013-05-01 22:10:00,58.0,46.7,30.40,North,360,8.0,11.0,66,0.00,,,0.01,Wunderground v.1.15,2013-05-02 02:10:00,
2013-05-01 22:14:00,57.8,46.5,30.40,North,360,8.0,12.0,66,0.00,,,0.01,Wunderground v.1.15,2013-05-02 02:14:00,
2013-05-01 22:16:00,57.8,46.9,30.40,North,360,8.0,12.0,67,0.00,,,0.01,Wunderground v.1.15,2013-05-02 02:16:00,
2013-05-01 22:18:00,57.8,46.9,30.40,North,360,8.0,12.0,67,0.00,,,0.01,Wunderground v.1.15,2013-05-02 02:18:00,
2013-05-01 22:20:00,57.8,46.9,30.40,North,360,7.0,7.0,67,0.00,,,0.01,Wunderground v.1.15,2013-05-02 02:20:00,
2013-05-01 22:26:00,57.6,46.7,30.40,North,360,8.0,12.0,67,0.00,,,0.01,Wunderground v.1.15,2013-05-02 02:26:00,
2013-05-01 22:28:00,57.6,46.7,30.40,North,360,8.0,12.0,67,0.00,,,0.01,Wunderground v.1.15,2013-05-02 02:28:00,
2013-05-01 22:32:00,57.6,46.7,30.40,North,360,6.0,7.0,67,0.00,,,0.01,Wunderground v.1.15,2013-05-02 02:32:00,
2013-05-01 22:34:00,57.8,46.9,30.40,North,360,6.0,7.0,67,0.00,,,0.01,Wunderground v.1.15,2013-05-02 02:34:00,
2013-05-01 22:38:00,57.7,46.8,30.40,North,360,4.0,7.0,67,0.00,,,0.01,Wunderground v.1.15,2013-05-02 02:38:00,
2013-05-01 22:42:00,57.4,46.5,30.40,North,360,5.0,11.0,67,0.00,,,0.01,Wunderground v.1.15,2013-05-02 02:42:00,
2013-05-01 22:44:00,57.3,46.8,30.40,North,360,6.0,11.0,68,0.00,,,0.01,Wunderground v.1.15,2013-05-02 02:44:00,
2013-05-01 22:46:00,57.2,46.7,30.40,North,360,6.0,11.0,68,0.00,,,0.01,Wunderground v.1.15,2013-05-02 02:46:00,
2013-05-01 22:50:00,57.1,46.6,30.40,North,360,7.0,7.0,68,0.00,,,0.01,Wunderground v.1.15,2013-05-02 02:50:00,
2013-05-01 22:52:00,57.0,46.5,30.40,North,360,6.0,7.0,68,0.00,,,0.01,Wunderground v.1.15,2013-05-02 02:52:00,
2013-05-01 22:56:00,56.7,46.6,30.40,North,360,6.0,8.0,69,0.00,,,0.01,Wunderground v.1.15,2013-05-02 02:56:00,
2013-05-01 23:02:00,56.6,46.5,30.40,North,360,5.0,6.0,69,0.00,,,0.01,Wunderground v.1.15,2013-05-02 03:02:00,
2013-05-01 23:04:00,56.6,46.5,30.40,North,360,5.0,9.0,69,0.00,,,0.01,Wunderground v.1.15,2013-05-02 03:04:00,
2013-05-01 23:08:00,56.4,46.4,30.40,North,360,5.0,9.0,69,0.00,,,0.01,Wunderground v.1.15,2013-05-02 03:08:00,
2013-05-01 23:10:00,56.4,46.7,30.40,North,360,5.0,8.0,70,0.00,,,0.01,Wunderground v.1.15,2013-05-02 03:10:00,
2013-05-01 23:12:00,56.4,46.4,30.40,North,360,6.0,8.0,69,0.00,,,0.01,Wunderground v.1.15,2013-05-02 03:12:00,
2013-05-01 23:16:00,56.2,46.5,30.40,North,360,6.0,8.0,70,0.00,,,0.01,Wunderground v.1.15,2013-05-02 03:16:00,
2013-05-01 23:20:00,56.1,46.4,30.40,North,360,4.0,6.0,70,0.00,,,0.01,Wunderground v.1.15,2013-05-02 03:20:00,
2013-05-01 23:22:00,56.1,46.4,30.41,North,360,4.0,6.0,70,0.00,,,0.01,Wunderground v.1.15,2013-05-02 03:22:00,
2013-05-01 23:26:00,56.2,46.5,30.40,North,360,3.0,6.0,70,0.00,,,0.01,Wunderground v.1.15,2013-05-02 03:26:00,
2013-05-01 23:30:00,56.1,46.4,30.40,North,360,4.0,4.0,70,0.00,,,0.01,Wunderground v.1.15,2013-05-02 03:30:00,
2013-05-01 23:32:00,56.0,46.4,30.40,North,360,4.0,6.0,70,0.00,,,0.01,Wunderground v.1.15,2013-05-02 03:32:00,
2013-05-01 23:36:00,55.9,46.3,30.40,North,360,5.0,6.0,70,0.00,,,0.01,Wunderground v.1.15,2013-05-02 03:36:00,
2013-05-01 23:42:00,55.7,46.4,30.41,North,360,5.0,5.0,71,0.00,,,0.01,Wunderground v.1.15,2013-05-02 03:42:00,
2013-05-01 23:46:00,55.5,46.2,30.41,North,360,4.0,6.0,71,0.00,,,0.01,Wunderground v.1.15,2013-05-02 03:46:00,
2013-05-01 23:48:00,55.4,46.2,30.41,North,360,5.0,10.0,71,0.00,,,0.01,Wunderground v.1.15,2013-05-02 03:48:00,
2013-05-01 23:50:00,55.2,46.3,30.41,North,360,5.0,9.0,72,0.00,,,0.01,Wunderground v.1.15,2013-05-02 03:50:00,
2013-05-01 23:52:00,55.0,46.1,30.41,North,360,6.0,11.0,72,0.00,,,0.01,Wunderground v.1.15,2013-05-02 03:52:00,
2013-05-01 23:56:00,54.8,46.3,30.41,North,360,7.0,11.0,73,0.00,,,0.01,Wunderground v.1.15,2013-05-02 03:56:00,